• In Portugal
  • List of Countries
  • For 7 days
  • Water Temperature
  • Satellite Maps
  • Weather Map
  • Weather Widgets
  • user-avatar
    Login

    Hourly Weather Taungdżi

    Today, 15 December, Friday

    Time Temperature Precipitation Wind Pressure Humidity
    00:00 +12°C° 0 mm 1 mps 649 mmHg 71%
    01:00 +12°C° 0 mm 1 mps 649 mmHg 71%
    02:00 +11°C° 0 mm 1 mps 648 mmHg 71%
    03:00 +11°C° 0 mm 1 mps 648 mmHg 71%
    04:00 +11°C° 0 mm 1 mps 648 mmHg 71%
    05:00 +10°C° 0 mm 0 mps 649 mmHg 70%
    06:00 +11°C° 0 mm 1 mps 649 mmHg 74%
    07:00 +14°C° 0 mm 1 mps 650 mmHg 66%
    08:00 +16°C° 0 mm 0 mps 651 mmHg 59%
    09:00 +19°C° 0 mm 0 mps 653 mmHg 51%
    10:00 +21°C° 0 mm 0 mps 653 mmHg 47%
    11:00 +22°C° 0 mm 0 mps 653 mmHg 42%
    12:00 +24°C° 0 mm 0 mps 653 mmHg 38%
    13:00 +23°C° 0 mm 0 mps 652 mmHg 40%
    14:00 +25°C° 0 mm 1 mps 652 mmHg 41%
    15:00 +24°C° 0 mm 1 mps 651 mmHg 43%
    16:00 +19°C° 0 mm 0 mps 651 mmHg 51%
    17:00 +17°C° 0 mm 0 mps 650 mmHg 58%
    18:00 +14°C° 0 mm 0 mps 649 mmHg 66%
    19:00 +13°C° 0 mm 0 mps 650 mmHg 68%
    20:00 +13°C° 0 mm 0 mps 650 mmHg 70%
    21:00 +12°C° 0 mm 0 mps 650 mmHg 72%
    22:00 +12°C° 0 mm 0 mps 650 mmHg 72%
    23:00 +13°C° 0 mm 1 mps 650 mmHg 73%

    Tomorrow, 16 December, Saturday

    Time Temperature Precipitation Wind Pressure Humidity
    00:00 +12°C° 0 mm 1 mps 650 mmHg 73%
    01:00 +12°C° 0 mm 1 mps 650 mmHg 74%
    02:00 +11°C° 0 mm 0 mps 650 mmHg 75%
    03:00 +11°C° 0 mm 0 mps 650 mmHg 76%
    04:00 +11°C° 0 mm 0 mps 650 mmHg 76%
    05:00 +10°C° 0 mm 0 mps 650 mmHg 77%
    06:00 +10°C° 0 mm 0 mps 650 mmHg 78%
    07:00 +14°C° 0 mm 1 mps 652 mmHg 70%
    08:00 +18°C° 0 mm 1 mps 653 mmHg 63%
    09:00 +21°C° 0 mm 1 mps 654 mmHg 55%
    10:00 +23°C° 0 mm 1 mps 654 mmHg 51%
    11:00 +24°C° 0 mm 1 mps 654 mmHg 47%
    12:00 +25°C° 0 mm 1 mps 654 mmHg 44%
    13:00 +25°C° 0 mm 1 mps 653 mmHg 46%
    14:00 +24°C° 0 mm 1 mps 653 mmHg 48%
    15:00 +24°C° 0 mm 1 mps 652 mmHg 50%
    16:00 +21°C° 0 mm 1 mps 652 mmHg 59%
    17:00 +19°C° 0 mm 1 mps 651 mmHg 67%
    18:00 +15°C° 0 mm 1 mps 651 mmHg 76%
    19:00 +15°C° 0 mm 1 mps 651 mmHg 78%
    20:00 +14°C° 0 mm 1 mps 652 mmHg 79%
    21:00 +14°C° 0 mm 1 mps 652 mmHg 80%
    22:00 +14°C° 0 mm 1 mps 652 mmHg 79%
    23:00 +14°C° 0 mm 1 mps 652 mmHg 78%

    Day after tomorrow, 17 December, Sunday

    Time Temperature Precipitation Wind Pressure Humidity
    00:00 +14°C° 0 mm 1 mps 652 mmHg 77%
    01:00 +14°C° 0 mm 1 mps 652 mmHg 76%
    02:00 +14°C° 0 mm 1 mps 652 mmHg 76%
    03:00 +14°C° 0 mm 1 mps 652 mmHg 76%
    04:00 +13°C° 0 mm 1 mps 652 mmHg 78%
    05:00 +13°C° 0 mm 1 mps 652 mmHg 80%
    06:00 +13°C° 0 mm 1 mps 652 mmHg 82%
    07:00 +15°C° 0 mm 1 mps 653 mmHg 76%
    08:00 +19°C° 0 mm 1 mps 654 mmHg 70%
    09:00 +22°C° 0 mm 1 mps 656 mmHg 63%
    10:00 +23°C° 0 mm 1 mps 655 mmHg 60%
    11:00 +24°C° 0 mm 1 mps 655 mmHg 56%
    12:00 +25°C° 0 mm 1 mps 655 mmHg 53%
    13:00 +24°C° 0 mm 1 mps 654 mmHg 57%
    14:00 +21°C° 0 mm 0 mps 653 mmHg 61%
    15:00 +20°C° 0 mm 0 mps 652 mmHg 65%
    16:00 +19°C° 0 mm 0 mps 652 mmHg 71%
    17:00 +17°C° 0 mm 0 mps 652 mmHg 76%
    18:00 +15°C° 0 mm 0 mps 652 mmHg 82%
    19:00 +15°C° 0 mm 0 mps 652 mmHg 84%
    20:00 +14°C° 0 mm 0 mps 652 mmHg 85%
    21:00 +14°C° 0 mm 0 mps 652 mmHg 87%
    22:00 +13°C° 0 mm 0 mps 652 mmHg 88%
    23:00 +13°C° 0 mm 0 mps 652 mmHg 89%

    18 December, Monday

    Time Temperature Precipitation Wind Pressure Humidity
    00:00 +13°C° 0 mm 0 mps 652 mmHg 90%
    01:00 +13°C° 0 mm 0 mps 651 mmHg 90%
    02:00 +12°C° 0 mm 0 mps 651 mmHg 91%
    03:00 +12°C° 0 mm 0 mps 651 mmHg 91%
    04:00 +12°C° 0 mm 0 mps 651 mmHg 92%
    05:00 +12°C° 0 mm 0 mps 651 mmHg 92%
    06:00 +12°C° 0 mm 0 mps 651 mmHg 93%
    07:00 +14°C° 0 mm 0 mps 653 mmHg 84%
    08:00 +17°C° 0 mm 0 mps 654 mmHg 75%
    09:00 +20°C° 0 mm 0 mps 655 mmHg 67%
    10:00 +21°C° 0 mm 0 mps 655 mmHg 62%
    11:00 +22°C° 0 mm 0 mps 655 mmHg 58%
    12:00 +23°C° 0 mm 0 mps 655 mmHg 53%
    13:00 +23°C° 0 mm 0 mps 654 mmHg 54%
    14:00 +24°C° 0 mm 1 mps 653 mmHg 55%
    15:00 +24°C° 0 mm 1 mps 653 mmHg 56%
    16:00 +19°C° 0 mm 0 mps 652 mmHg 64%
    17:00 +17°C° 0 mm 0 mps 652 mmHg 73%
    18:00 +15°C° 0 mm 0 mps 651 mmHg 82%
    19:00 +14°C° 0 mm 0 mps 652 mmHg 84%
    20:00 +14°C° 0 mm 0 mps 652 mmHg 86%
    21:00 +13°C° 0 mm 0 mps 652 mmHg 88%
    22:00 +13°C° 0 mm 0 mps 652 mmHg 88%
    23:00 +13°C° 0 mm 0 mps 652 mmHg 89%

    19 December, Tuesday

    Time Temperature Precipitation Wind Pressure Humidity
    00:00 +13°C° 0 mm 0 mps 652 mmHg 90%
    01:00 +12°C° 0 mm 0 mps 651 mmHg 90%
    02:00 +12°C° 0 mm 0 mps 651 mmHg 91%
    03:00 +13°C° 0 mm 1 mps 651 mmHg 92%
    04:00 +13°C° 0 mm 1 mps 651 mmHg 92%
    05:00 +13°C° 0 mm 1 mps 651 mmHg 93%
    06:00 +12°C° 0 mm 1 mps 651 mmHg 93%
    07:00 +15°C° 0 mm 1 mps 653 mmHg 84%
    08:00 +19°C° 0 mm 1 mps 654 mmHg 74%
    09:00 +21°C° 0 mm 1 mps 655 mmHg 65%
    10:00 +22°C° 0 mm 1 mps 655 mmHg 60%
    11:00 +24°C° 0 mm 1 mps 655 mmHg 55%
    12:00 +25°C° 0 mm 1 mps 654 mmHg 50%
    13:00 +25°C° 0 mm 1 mps 654 mmHg 51%
    14:00 +24°C° 0 mm 1 mps 653 mmHg 52%
    15:00 +23°C° 0 mm 1 mps 652 mmHg 54%
    16:00 +21°C° 0 mm 1 mps 652 mmHg 62%
    17:00 +19°C° 0 mm 1 mps 652 mmHg 71%
    18:00 +16°C° 0 mm 1 mps 651 mmHg 79%
    19:00 +15°C° 0 mm 1 mps 652 mmHg 81%
    20:00 +15°C° 0 mm 1 mps 652 mmHg 83%
    21:00 +14°C° 0 mm 1 mps 652 mmHg 85%
    22:00 +14°C° 0 mm 1 mps 652 mmHg 85%
    23:00 +14°C° 0 mm 1 mps 652 mmHg 86%

    20 December, Wednesday

    Time Temperature Precipitation Wind Pressure Humidity
    00:00 +13°C° 0 mm 1 mps 652 mmHg 86%
    01:00 +13°C° 0 mm 1 mps 651 mmHg 86%
    02:00 +13°C° 0 mm 1 mps 651 mmHg 87%
    03:00 +12°C° 0 mm 1 mps 651 mmHg 87%
    04:00 +12°C° 0 mm 1 mps 651 mmHg 87%
    05:00 +12°C° 0 mm 1 mps 651 mmHg 87%
    06:00 +11°C° 0 mm 1 mps 652 mmHg 88%
    07:00 +14°C° 0 mm 1 mps 653 mmHg 78%
    08:00 +18°C° 0 mm 1 mps 654 mmHg 68%
    09:00 +21°C° 0 mm 1 mps 655 mmHg 58%
    10:00 +22°C° 0 mm 1 mps 655 mmHg 54%
    11:00 +23°C° 0 mm 1 mps 655 mmHg 50%
    12:00 +24°C° 0 mm 1 mps 655 mmHg 45%
    13:00 +24°C° 0 mm 1 mps 654 mmHg 47%
    14:00 +23°C° 0 mm 1 mps 653 mmHg 48%
    15:00 +23°C° 0 mm 1 mps 652 mmHg 49%
    16:00 +21°C° 0 mm 1 mps 652 mmHg 58%
    17:00 +18°C° 0 mm 1 mps 652 mmHg 66%
    18:00 +15°C° 0 mm 1 mps 652 mmHg 74%
    19:00 +14°C° 0 mm 1 mps 652 mmHg 75%
    20:00 +14°C° 0 mm 1 mps 652 mmHg 76%
    21:00 +13°C° 0 mm 1 mps 652 mmHg 77%
    22:00 +13°C° 0 mm 1 mps 652 mmHg 76%
    23:00 +12°C° 0 mm 1 mps 652 mmHg 75%
    Show more